星链-35212 (STARLINK-35212)

导读

STARLINK-35212是美国SpaceX星链星座中的一颗卫星,于2025年9月5日发射升空。星链项目旨在构建全球卫星互联网星座,为全球偏远地区、海洋空域等提供高速互联网接入服务。该卫星加入星座后,进一步扩充了星链网络的覆盖范围与服务容量,支撑星座的全球互联服务能力提升。

Basic Information
目录编号:
65496
目录名称:
STARLINK-35212
国际标识:
2025-198E
轨道中心:
EARTH
卫星名称:
星链-35212
卫星全名:
星链-35212 (STARLINK-35212)
卫星状态:
在轨 (已飞行281 天)
发射日期:
2025-09-05 UTC
国别 :
美国 (US)
星等 :
--
Orbit Information
数据来源 国际轨道数据 AOE轨道数据
星历时间 2026-06-13T14:41:00+0800
9小时前
查看轨道信息
2026-06-09T07:00:00+0800
4天前
查看轨道信息
半长轴 6853.299km 6853.251km
偏心率 0.0001135 0.0001283
轨道倾角 53.157° 53.159°
近地点辐角 92.761° 87.777°
升交点赤经 187.104° 207.167°
平近点角 267.352° 220.688°
近地点 474.384km 474.234km
远地点 475.94km 475.994km
周期 94.104分钟 94.103分钟
每日圈数 15.302179 15.302339
Detailed Information
固有亮度:
5
最大亮度:
2.5
卫星平台:
Starlink V1.0
覆盖范围:
全球
运营商:
太空探索技术公司
运营商所在国:
美国
制造商(研发单位):
太空探索技术公司
制造商所在国:
美国
使用方式:
暂无
Satellite Introduction
Starlink 计划是 SpaceX 推出的全球卫星互联网项目,通过发射低轨道卫星,为全球尤其是偏远地区提供高速、低延迟的互联网服务。自 2019 年起,Starlink 已部署数千颗卫星,旨在缩小全球数字鸿沟,推动互联网普及。该项目还为军事、航空等行业提供通信支持,带来广泛经济效益。
2D Orbit Map
3D Orbit Map
Orbit Altitude Analysis Chart
Orbit Inclination Analysis Chart
Orbit Comprehensive Analysis Chart
View Comprehensive Chart